When you browse on this site, cookies collect data to enhance your experience and personalize the content and advertising you see.
Visit our Privacy Policy to learn more. By continuing to use the site, you agree to this use of cookies and data.
  • în România
  • Lista ţărilor
  • Pe 7 zile
  • Temperatura apei
  • Hartă satelitară
  • Meteo pe hartă
  • Widget-uri
  • user-avatar
    Intrare

    Meteo pe oră la Borgarnes

    Astăzi, 20 Ianuarie, Duminică

    Timp Temperatura Precipitaţii Vânt Presiune Umiditate
    00:00 -4°C° 0.3 mm 6 m/s 749 mmHg 83%
    01:00 -4°C° 0.3 mm 7 m/s 749 mmHg 79%
    02:00 -5°C° 0.3 mm 8 m/s 749 mmHg 75%
    03:00 -5°C° 0.2 mm 8 m/s 749 mmHg 75%
    04:00 -5°C° 0.2 mm 8 m/s 749 mmHg 74%
    05:00 -5°C° 0 mm 6 m/s 749 mmHg 76%
    06:00 -5°C° 0.2 mm 6 m/s 749 mmHg 77%
    07:00 -5°C° 0.2 mm 6 m/s 749 mmHg 77%
    08:00 -6°C° 0.2 mm 7 m/s 749 mmHg 77%
    09:00 -4°C° 0.3 mm 7 m/s 749 mmHg 77%
    10:00 -5°C° 0.3 mm 8 m/s 749 mmHg 76%
    11:00 -4°C° 0 mm 7 m/s 749 mmHg 77%
    12:00 -4°C° 0.1 mm 7 m/s 749 mmHg 76%
    13:00 -3°C° 0.1 mm 6 m/s 749 mmHg 76%
    14:00 -3°C° 0.1 mm 6 m/s 749 mmHg 75%
    15:00 -3°C° 0.2 mm 7 m/s 747 mmHg 80%
    16:00 -4°C° 0.2 mm 7 m/s 745 mmHg 84%
    17:00 -5°C° 0.2 mm 8 m/s 743 mmHg 89%
    18:00 -2°C° 1.9 mm 8 m/s 741 mmHg 91%
    19:00 -1°C° 1.9 mm 9 m/s 739 mmHg 92%
    20:00 +1°C° 1.9 mm 10 m/s 737 mmHg 94%
    21:00 0°C° 0.3 mm 9 m/s 736 mmHg 89%
    22:00 -1°C° 0.3 mm 9 m/s 736 mmHg 85%
    23:00 -1°C° 0.3 mm 8 m/s 736 mmHg 81%

    Mâine, 21 Ianuarie, Luni

    Timp Temperatura Precipitaţii Vânt Presiune Umiditate
    00:00 -2°C° 0.4 mm 7 m/s 735 mmHg 83%
    01:00 -3°C° 0.4 mm 6 m/s 735 mmHg 85%
    02:00 -2°C° 0.4 mm 5 m/s 735 mmHg 87%
    03:00 -3°C° 0.4 mm 4 m/s 734 mmHg 88%
    04:00 -3°C° 0.4 mm 4 m/s 733 mmHg 90%
    05:00 -4°C° 0.4 mm 3 m/s 733 mmHg 92%
    06:00 -4°C° 0.5 mm 3 m/s 732 mmHg 92%
    07:00 -4°C° 0.5 mm 3 m/s 732 mmHg 92%
    08:00 -4°C° 0.5 mm 3 m/s 731 mmHg 91%
    09:00 -5°C° 0.1 mm 3 m/s 731 mmHg 88%
    10:00 -6°C° 0.1 mm 3 m/s 731 mmHg 86%
    11:00 -8°C° 0.1 mm 4 m/s 731 mmHg 83%
    12:00 -7°C° 0.2 mm 4 m/s 731 mmHg 85%
    13:00 -7°C° 0.2 mm 5 m/s 730 mmHg 88%
    14:00 -7°C° 0.2 mm 5 m/s 730 mmHg 90%
    15:00 -6°C° 0.4 mm 5 m/s 730 mmHg 88%
    16:00 -5°C° 0.4 mm 6 m/s 730 mmHg 86%
    17:00 -5°C° 0.4 mm 6 m/s 730 mmHg 85%
    18:00 -6°C° 0.2 mm 7 m/s 730 mmHg 87%
    19:00 -6°C° 0.2 mm 7 m/s 731 mmHg 90%
    20:00 -6°C° 0.2 mm 8 m/s 731 mmHg 92%
    21:00 -5°C° 0.1 mm 6 m/s 733 mmHg 86%
    22:00 -5°C° 0.1 mm 5 m/s 734 mmHg 80%
    23:00 -4°C° 0.1 mm 3 m/s 735 mmHg 74%

    Poimâine, 22 Ianuarie, Marţi

    Timp Temperatura Precipitaţii Vânt Presiune Umiditate
    00:00 -5°C° 0.2 mm 3 m/s 736 mmHg 75%
    01:00 -5°C° 0.2 mm 3 m/s 737 mmHg 76%
    02:00 -5°C° 0.2 mm 2 m/s 738 mmHg 77%
    03:00 -5°C° 0.1 mm 2 m/s 739 mmHg 79%
    04:00 -3°C° 0.1 mm 1 m/s 739 mmHg 80%
    05:00 -4°C° 0.1 mm 0 m/s 740 mmHg 82%
    06:00 -4°C° 0 mm 1 m/s 741 mmHg 83%
    07:00 -6°C° 0 mm 2 m/s 742 mmHg 84%
    08:00 -7°C° 0 mm 3 m/s 742 mmHg 85%
    09:00 -7°C° 0.1 mm 3 m/s 743 mmHg 85%
    10:00 -7°C° 0.1 mm 3 m/s 743 mmHg 86%
    11:00 -7°C° 0.1 mm 3 m/s 744 mmHg 86%
    12:00 -6°C° 0.2 mm 3 m/s 744 mmHg 87%
    13:00 -6°C° 0.2 mm 3 m/s 745 mmHg 87%
    14:00 -5°C° 0.2 mm 3 m/s 745 mmHg 88%
    15:00 -5°C° 0.1 mm 3 m/s 746 mmHg 87%
    16:00 -5°C° 0.1 mm 3 m/s 746 mmHg 86%
    17:00 -5°C° 0.1 mm 3 m/s 746 mmHg 85%
    18:00 -6°C° 0 mm 3 m/s 747 mmHg 85%
    19:00 -6°C° 0 mm 2 m/s 747 mmHg 84%
    20:00 -7°C° 0 mm 2 m/s 747 mmHg 83%
    21:00 -7°C° 0 mm 2 m/s 748 mmHg 83%
    22:00 -7°C° 0 mm 2 m/s 748 mmHg 83%
    23:00 -8°C° 0 mm 2 m/s 748 mmHg 83%

    23 Ianuarie, Miercuri

    Timp Temperatura Precipitaţii Vânt Presiune Umiditate
    00:00 -9°C° 0 mm 3 m/s 748 mmHg 83%
    01:00 -9°C° 0 mm 3 m/s 748 mmHg 83%
    02:00 -10°C° 0 mm 3 m/s 748 mmHg 83%
    03:00 -10°C° 0 mm 3 m/s 748 mmHg 82%
    04:00 -10°C° 0 mm 3 m/s 749 mmHg 81%
    05:00 -10°C° 0 mm 3 m/s 749 mmHg 80%
    06:00 -10°C° 0 mm 3 m/s 749 mmHg 78%
    07:00 -10°C° 0 mm 3 m/s 749 mmHg 77%
    08:00 -10°C° 0 mm 3 m/s 750 mmHg 76%
    09:00 -10°C° 0 mm 3 m/s 750 mmHg 75%
    10:00 -10°C° 0 mm 3 m/s 750 mmHg 75%
    11:00 -9°C° 0 mm 3 m/s 750 mmHg 75%
    12:00 -9°C° 0 mm 3 m/s 750 mmHg 75%
    13:00 -9°C° 0 mm 3 m/s 750 mmHg 76%
    14:00 -8°C° 0 mm 3 m/s 750 mmHg 76%
    15:00 -8°C° 0 mm 3 m/s 750 mmHg 76%
    16:00 -8°C° 0 mm 3 m/s 750 mmHg 76%
    17:00 -7°C° 0 mm 3 m/s 750 mmHg 77%
    18:00 -7°C° 0 mm 3 m/s 750 mmHg 76%
    19:00 -6°C° 0 mm 2 m/s 750 mmHg 75%
    20:00 -6°C° 0 mm 2 m/s 750 mmHg 75%
    21:00 -6°C° 0 mm 2 m/s 750 mmHg 75%
    22:00 -7°C° 0 mm 3 m/s 750 mmHg 75%
    23:00 -7°C° 0 mm 3 m/s 750 mmHg 75%

    24 Ianuarie, Joi

    Timp Temperatura Precipitaţii Vânt Presiune Umiditate
    00:00 -7°C° 0 mm 3 m/s 750 mmHg 75%
    01:00 -7°C° 0 mm 3 m/s 750 mmHg 74%
    02:00 -7°C° 0 mm 3 m/s 750 mmHg 74%
    03:00 -7°C° 0 mm 3 m/s 750 mmHg 74%
    04:00 -7°C° 0 mm 3 m/s 749 mmHg 74%
    05:00 -7°C° 0 mm 3 m/s 749 mmHg 74%
    06:00 -7°C° 0 mm 3 m/s 749 mmHg 75%
    07:00 -6°C° 0 mm 3 m/s 749 mmHg 76%
    08:00 -6°C° 0 mm 3 m/s 749 mmHg 77%
    09:00 -6°C° 0 mm 3 m/s 749 mmHg 79%
    10:00 -5°C° 0 mm 3 m/s 749 mmHg 81%
    11:00 -5°C° 0 mm 3 m/s 748 mmHg 83%
    12:00 -5°C° 0.2 mm 3 m/s 748 mmHg 85%
    13:00 -5°C° 0.2 mm 3 m/s 748 mmHg 87%
    14:00 -5°C° 0.2 mm 3 m/s 747 mmHg 88%
    15:00 -5°C° 0.4 mm 3 m/s 747 mmHg 90%
    16:00 -5°C° 0.4 mm 4 m/s 746 mmHg 91%
    17:00 -6°C° 0.4 mm 5 m/s 745 mmHg 92%
    18:00 -6°C° 0.5 mm 5 m/s 745 mmHg 93%
    19:00 -6°C° 0.5 mm 5 m/s 744 mmHg 93%
    20:00 -6°C° 0.5 mm 5 m/s 743 mmHg 94%
    21:00 -6°C° 0.5 mm 6 m/s 743 mmHg 93%
    22:00 -6°C° 0.5 mm 6 m/s 742 mmHg 93%
    23:00 -6°C° 0.5 mm 6 m/s 741 mmHg 93%

    25 Ianuarie, Vineri

    Timp Temperatura Precipitaţii Vânt Presiune Umiditate
    00:00 -6°C° 0.1 mm 6 m/s 741 mmHg 92%
    01:00 -6°C° 0.1 mm 6 m/s 742 mmHg 92%
    02:00 -6°C° 0.1 mm 6 m/s 742 mmHg 91%
    03:00 -6°C° 0.2 mm 6 m/s 742 mmHg 92%
    04:00 -5°C° 0.2 mm 6 m/s 743 mmHg 93%
    05:00 -5°C° 0.2 mm 6 m/s 743 mmHg 95%
    06:00 -4°C° 0.3 mm 6 m/s 744 mmHg 94%
    07:00 -4°C° 0.3 mm 6 m/s 745 mmHg 94%
    08:00 -3°C° 0.3 mm 6 m/s 745 mmHg 94%
    09:00 -4°C° 0 mm 6 m/s 746 mmHg 92%
    10:00 -4°C° 0 mm 6 m/s 746 mmHg 90%
    11:00 -5°C° 0 mm 6 m/s 747 mmHg 88%
    12:00 -4°C° 0.5 mm 6 m/s 747 mmHg 90%
    13:00 -4°C° 0.5 mm 5 m/s 748 mmHg 93%
    14:00 -2°C° 0.5 mm 5 m/s 748 mmHg 95%
    15:00 -3°C° 0.2 mm 6 m/s 749 mmHg 92%
    16:00 -4°C° 0.2 mm 7 m/s 749 mmHg 90%
    17:00 -5°C° 0.2 mm 8 m/s 750 mmHg 87%
    18:00 -5°C° 0 mm 8 m/s 751 mmHg 86%
    19:00 -5°C° 0 mm 8 m/s 752 mmHg 86%
    20:00 -5°C° 0 mm 8 m/s 753 mmHg 86%
    21:00 -6°C° 0 mm 8 m/s 754 mmHg 86%
    22:00 -6°C° 0 mm 8 m/s 755 mmHg 86%
    23:00 -6°C° 0 mm 8 m/s 756 mmHg 86%
    Arată mai mult